Flag for Bolivia Weather past 2 weeks in Trinidad, Bolivia

Now
77 °F

Clear.


Feels Like: 78 °F
Forecast: 76 / 99 °F
Wind: 5 mph from North

Location: Trinidad Airport

Current Time: Sep 30, 2014 at 8:04:55 AM

Latest Report: Sep 30, 2014 at 7:00 AM


Visibility: N/A

Pressure: 29.86 "Hg

Humidity: 83%

Dew point: 72 °F

Location of TrinidadLocation

Historic Weather in Trinidad — Graph

°F

Trinidad temperature yesterday

Maximum temperature yesterday: 97 °F (at 3:00 PM)
Minimum temperature yesterday: 75 °F (at 5:00 AM)
Average temperature yesterday: 87 °F

Past Weeks' High & Low Weather Summary

 TemperatureHumidityPressure
High97 °F (Sep 18, 4:00 PM)100% (Sep 21, 5:00 AM)30.09 "Hg (Sep 21, 5:00 AM)
Low66 °F (Sep 16, 5:00 AM)38% (Sep 16, 1:00 PM)29.71 "Hg (Sep 18, 6:00 PM)
Average84 °F66%29.86 "Hg
* Reported Sep 15 7:00 AM — Sep 30 7:00 AM, Trinidad, Weather by CustomWeather, © 2014

Note: Actual official high and low records may vary slightly from our data, if they occured in-between our weather recording intervals... More about our weather records

Advertising

Trinidad weather history for previous 24 hours

 ConditionsComfort  
Time TempWeatherWind HumidityBarometerVisibility
7:00 AM
Sep 30
77 °FClear.5 mph83%29.86 "HgN/A
6:00 AM75 °FClear.5 mph83%29.86 "HgN/A
5:00 AM75 °FClear.5 mph89%29.83 "HgN/A
12:00 AM79 °FClear.7 mph74%29.86 "HgN/A
11:00 PM
Sep 29
81 °FClear.5 mph74%29.83 "HgN/A
10:00 PM81 °FClear.5 mph74%29.83 "HgN/A
9:00 PM84 °FClear.5 mph70%29.80 "HgN/A
8:00 PM84 °FClear.5 mph70%29.77 "HgN/A
7:00 PM88 °FPassing clouds.3 mph55%29.74 "HgN/A
6:00 PM93 °FPassing clouds.5 mph47%29.74 "HgN/A
5:00 PM95 °FPassing clouds.10 mph44%29.74 "HgN/A
4:00 PM97 °FPassing clouds.14 mph42%29.74 "HgN/A
3:00 PM97 °FPassing clouds.13 mph44%29.77 "HgN/A
2:00 PM95 °FPassing clouds.16 mph44%29.80 "HgN/A
1:00 PM95 °FScattered clouds.15 mph44%29.83 "Hg5 mi
12:00 PM93 °FScattered clouds.16 mph47%29.86 "Hg5 mi
11:00 AM91 °FClear.15 mph52%29.89 "Hg5 mi
10:00 AM88 °FClear.14 mph62%29.89 "Hg5 mi
9:00 AM84 °FClear.15 mph74%29.89 "Hg5 mi
8:00 AM81 °FClear.10 mph79%29.89 "Hg5 mi
Weather by CustomWeather, © 2014

See weather overviewHow to use our weather pages